DECAYED

OBJECT AX, 59143 (Decayed)

Orbit data source: Space-Track

You're viewing an Uncataloged Satellite

Recently launched and/or uncataloged satellites may have evolving metadata. Metadata may include but not limited to: Owner, Maufacturer, Bus, Motor, and Mission.

OBJECT AX, 59143 was a satellite in LEO that was launched on Mon, 04 Mar 2024 UTC via an FALCON 9 launch vehicle from the Air Force Western Test Range (AFWTR). Unknown objects in Earth's orbit typically refer to objects detected orbiting the Earth but have not yet been identified or cataloged. These objects could be anything from previously untracked satellites, spent rocket stages, debris from satellite collisions, or even natural meteoroids temporarily captured by Earth's gravity. This object's orbit decayed before it could be identified.

Not visible in the next 10 days
Identifier
59143, 2024-043AX
Orbit
Decayed
Country
Flag of TBDTBD
Related business
None
Manufacturer
Unknown
Mission
Decayed Amateur Technology
Bus & Motor
Unknown
Mass
Unknown
Launch date (UTC)
2024-03-04 (2 years ago)
Launch vehicle
FALCON 9
Launch site
Air Force Western Test Range (AFWTR)
Object type
Unknown
Shape & HBR
Box, 0.1 m
Radar Cross Section
0.035 m², Medium (>0.1 m² and < 1m²)

Expand to show TLE details & history
Last TLE update: 1 year ago

TLE from 1 year ago
0 OBJECT AX
1 59143U 24043AX  25088.24025370  .11441880  25659-5  11435-2 0  9996
2 59143  97.4615 227.3877 0012879 282.7661  77.2198 16.37906214 59839
Epoch: 2025-03-29T05:45Z
TLE epoch observation values (Epoch: 2025-03-29T05:45:57.919Z)
Latitude
0.00001°
Longitude
-45.99132°
Altitude
172.769 km
Speed
7.804 km/s
True Right ascension
15h 09m 33s
True Declination
0° 00' 00"
Sunlit
Object was in full shadow at epoch
Visualization orbit readout
Latitude
Unknown
Longitude
Unknown
Altitude
Unknown
Speed
Unknown
Apparent Right ascension
Unknown
Apparent Declination
Unknown
Sunlit
N/A
Visualization observer readout
Local Sidereal Time
14:55:52
Azimuth
Unknown
Elevation
Unknown
Doppler factor
Unknown
Orbital elements
Apogee altitude
176.622 km
Perigee altitude
159.76 km
Semi-major axis
6,546.328 km
Eccentricity
0.00129
Inclination
97.4615°
RAAN
227.3877°
Arg. of periapsis
282.7661°
True anomaly
77.36378°
Mean anomaly
77.2198°
Eccentric anomaly
77.29178°
Mean motion
4.09776 °/min
Orbital period
87.85 mins
BSTAR
0.0011435
Loading maneuver chart data...
Computing Atmospheric mass density...
Loading historical data...
Loading historical data...
Loading historical data...
Loading historical data...
Loading historical data...
Loading historical data...
Loading historical data...

Documentation

Showing up to 5 results
|